Time,TemperatureF,DewpointF,PressureIn,WindDirection,WindDirectionDegrees,WindSpeedMPH,WindSpeedGustMPH,Humidity,HourlyPrecipIn,Conditions,Clouds,dailyrainin,SoftwareType,DateUTC
2013-02-22 00:07:00,26.8,13.6,30.06,North,-999,-999.0,-999.0,57,-99.99,,,-99.99,Acu-Link.com,2013-02-22 05:07:00,
2013-02-22 00:22:00,26.8,13.6,30.05,North,-999,-999.0,-999.0,57,-99.99,,,-99.99,Acu-Link.com,2013-02-22 05:22:00,
2013-02-22 00:37:00,27.0,13.8,30.05,North,-999,-999.0,-999.0,57,-99.99,,,-99.99,Acu-Link.com,2013-02-22 05:37:00,
2013-02-22 00:52:00,27.1,14.3,30.05,North,-999,-999.0,-999.0,58,-99.99,,,-99.99,Acu-Link.com,2013-02-22 05:52:00,
2013-02-22 01:07:00,27.3,14.9,30.06,North,-999,-999.0,-999.0,59,-99.99,,,-99.99,Acu-Link.com,2013-02-22 06:07:00,
2013-02-22 01:22:00,27.5,15.5,30.07,North,-999,-999.0,-999.0,60,-99.99,,,-99.99,Acu-Link.com,2013-02-22 06:22:00,
2013-02-22 01:37:00,27.5,15.5,30.07,North,-999,-999.0,-999.0,60,-99.99,,,-99.99,Acu-Link.com,2013-02-22 06:37:00,
2013-02-22 01:53:00,27.5,15.8,30.06,North,-999,-999.0,-999.0,61,-99.99,,,-99.99,Acu-Link.com,2013-02-22 06:53:00,
2013-02-22 02:08:00,27.1,15.5,30.05,North,-999,-999.0,-999.0,61,-99.99,,,-99.99,Acu-Link.com,2013-02-22 07:08:00,
2013-02-22 02:36:00,27.0,15.7,30.06,North,-999,-999.0,-999.0,62,-99.99,,,-99.99,Acu-Link.com,2013-02-22 07:36:00,
2013-02-22 02:51:00,27.0,15.7,30.10,North,-999,-999.0,-999.0,62,-99.99,,,-99.99,Acu-Link.com,2013-02-22 07:51:00,
2013-02-22 03:06:00,27.1,16.2,30.10,North,-999,-999.0,-999.0,63,-99.99,,,-99.99,Acu-Link.com,2013-02-22 08:06:00,
2013-02-22 03:21:00,27.1,16.6,30.09,North,-999,-999.0,-999.0,64,-99.99,,,-99.99,Acu-Link.com,2013-02-22 08:21:00,
2013-02-22 03:36:00,27.1,17.0,30.09,North,-999,-999.0,-999.0,65,-99.99,,,-99.99,Acu-Link.com,2013-02-22 08:36:00,
2013-02-22 03:51:00,27.0,16.8,30.09,North,-999,-999.0,-999.0,65,-99.99,,,-99.99,Acu-Link.com,2013-02-22 08:51:00,
2013-02-22 04:19:00,27.0,16.8,30.09,North,-999,-999.0,-999.0,65,-99.99,,,-99.99,Acu-Link.com,2013-02-22 09:19:00,
2013-02-22 04:34:00,27.1,17.3,30.11,North,-999,-999.0,-999.0,66,-99.99,,,-99.99,Acu-Link.com,2013-02-22 09:34:00,
2013-02-22 04:50:00,27.1,17.3,30.12,North,-999,-999.0,-999.0,66,-99.99,,,-99.99,Acu-Link.com,2013-02-22 09:50:00,
2013-02-22 05:05:00,27.1,17.7,30.11,North,-999,-999.0,-999.0,67,-99.99,,,-99.99,Acu-Link.com,2013-02-22 10:05:00,
2013-02-22 05:20:00,27.1,18.0,30.10,North,-999,-999.0,-999.0,68,-99.99,,,-99.99,Acu-Link.com,2013-02-22 10:20:00,
2013-02-22 05:35:00,27.1,18.0,30.11,North,-999,-999.0,-999.0,68,-99.99,,,-99.99,Acu-Link.com,2013-02-22 10:35:00,
2013-02-22 05:50:00,27.1,17.7,30.13,North,-999,-999.0,-999.0,67,-99.99,,,-99.99,Acu-Link.com,2013-02-22 10:50:00,
2013-02-22 06:05:00,27.1,17.7,30.14,North,-999,-999.0,-999.0,67,-99.99,,,-99.99,Acu-Link.com,2013-02-22 11:05:00,
2013-02-22 06:20:00,27.1,17.7,30.15,North,-999,-999.0,-999.0,67,-99.99,,,-99.99,Acu-Link.com,2013-02-22 11:20:00,
2013-02-22 06:35:00,27.1,17.7,30.16,North,-999,-999.0,-999.0,67,-99.99,,,-99.99,Acu-Link.com,2013-02-22 11:35:00,
2013-02-22 06:50:00,27.1,17.7,30.17,North,-999,-999.0,-999.0,67,-99.99,,,-99.99,Acu-Link.com,2013-02-22 11:50:00,
2013-02-22 07:05:00,27.1,17.7,30.16,North,-999,-999.0,-999.0,67,-99.99,,,-99.99,Acu-Link.com,2013-02-22 12:05:00,
2013-02-22 07:20:00,27.3,17.8,30.17,North,-999,-999.0,-999.0,67,-99.99,,,-99.99,Acu-Link.com,2013-02-22 12:20:00,
2013-02-22 07:35:00,27.5,18.0,30.17,North,-999,-999.0,-999.0,67,-99.99,,,-99.99,Acu-Link.com,2013-02-22 12:35:00,
2013-02-22 07:50:00,27.9,18.0,30.17,North,-999,-999.0,-999.0,66,-99.99,,,-99.99,Acu-Link.com,2013-02-22 12:50:00,
2013-02-22 08:06:00,28.2,18.3,30.18,North,-999,-999.0,-999.0,66,-99.99,,,-99.99,Acu-Link.com,2013-02-22 13:06:00,
2013-02-22 08:21:00,28.4,17.8,30.19,North,-999,-999.0,-999.0,64,-99.99,,,-99.99,Acu-Link.com,2013-02-22 13:21:00,
2013-02-22 08:36:00,28.4,17.8,30.19,North,-999,-999.0,-999.0,64,-99.99,,,-99.99,Acu-Link.com,2013-02-22 13:36:00,
2013-02-22 08:51:00,28.6,18.0,30.18,North,-999,-999.0,-999.0,64,-99.99,,,-99.99,Acu-Link.com,2013-02-22 13:51:00,
2013-02-22 09:06:00,28.9,18.3,30.18,North,-999,-999.0,-999.0,64,-99.99,,,-99.99,Acu-Link.com,2013-02-22 14:06:00,
2013-02-22 09:21:00,29.1,18.5,30.18,North,-999,-999.0,-999.0,64,-99.99,,,-99.99,Acu-Link.com,2013-02-22 14:21:00,
2013-02-22 09:36:00,29.1,18.5,30.18,North,-999,-999.0,-999.0,64,-99.99,,,-99.99,Acu-Link.com,2013-02-22 14:36:00,
2013-02-22 09:51:00,29.7,19.0,30.17,North,-999,-999.0,-999.0,64,-99.99,,,-99.99,Acu-Link.com,2013-02-22 14:51:00,
2013-02-22 10:06:00,30.2,19.1,30.17,North,-999,-999.0,-999.0,63,-99.99,,,-99.99,Acu-Link.com,2013-02-22 15:06:00,
2013-02-22 10:21:00,31.3,20.2,30.17,North,-999,-999.0,-999.0,63,-99.99,,,-99.99,Acu-Link.com,2013-02-22 15:21:00,
2013-02-22 10:36:00,32.9,21.3,30.17,North,-999,-999.0,-999.0,62,-99.99,,,-99.99,Acu-Link.com,2013-02-22 15:36:00,
2013-02-22 10:51:00,33.6,21.6,30.17,North,-999,-999.0,-999.0,61,-99.99,,,-99.99,Acu-Link.com,2013-02-22 15:51:00,
2013-02-22 11:06:00,34.0,21.6,30.17,North,-999,-999.0,-999.0,60,-99.99,,,-99.99,Acu-Link.com,2013-02-22 16:06:00,
2013-02-22 11:21:00,34.5,22.1,30.16,North,-999,-999.0,-999.0,60,-99.99,,,-99.99,Acu-Link.com,2013-02-22 16:21:00,
2013-02-22 11:36:00,34.9,22.4,30.16,North,-999,-999.0,-999.0,60,-99.99,,,-99.99,Acu-Link.com,2013-02-22 16:36:00,
2013-02-22 11:51:00,35.2,22.4,30.16,North,-999,-999.0,-999.0,59,-99.99,,,-99.99,Acu-Link.com,2013-02-22 16:51:00,
2013-02-22 12:06:00,35.2,22.4,30.15,North,-999,-999.0,-999.0,59,-99.99,,,-99.99,Acu-Link.com,2013-02-22 17:06:00,
2013-02-22 12:21:00,35.6,22.3,30.14,North,-999,-999.0,-999.0,58,-99.99,,,-99.99,Acu-Link.com,2013-02-22 17:21:00,
2013-02-22 12:36:00,36.0,22.6,30.13,North,-999,-999.0,-999.0,58,-99.99,,,-99.99,Acu-Link.com,2013-02-22 17:36:00,
2013-02-22 12:51:00,36.0,22.2,30.13,North,-999,-999.0,-999.0,57,-99.99,,,-99.99,Acu-Link.com,2013-02-22 17:51:00,
2013-02-22 13:06:00,36.7,22.9,30.13,North,-999,-999.0,-999.0,57,-99.99,,,-99.99,Acu-Link.com,2013-02-22 18:06:00,
2013-02-22 13:21:00,37.4,23.2,30.11,North,-999,-999.0,-999.0,56,-99.99,,,-99.99,Acu-Link.com,2013-02-22 18:21:00,
2013-02-22 13:36:00,37.4,23.2,30.10,North,-999,-999.0,-999.0,56,-99.99,,,-99.99,Acu-Link.com,2013-02-22 18:36:00,
2013-02-22 13:51:00,37.6,23.3,30.10,North,-999,-999.0,-999.0,56,-99.99,,,-99.99,Acu-Link.com,2013-02-22 18:51:00,
2013-02-22 14:06:00,37.6,23.3,30.10,North,-999,-999.0,-999.0,56,-99.99,,,-99.99,Acu-Link.com,2013-02-22 19:06:00,
2013-02-22 14:21:00,37.4,22.7,30.10,North,-999,-999.0,-999.0,55,-99.99,,,-99.99,Acu-Link.com,2013-02-22 19:21:00,
2013-02-22 14:36:00,37.9,23.7,30.10,North,-999,-999.0,-999.0,56,-99.99,,,-99.99,Acu-Link.com,2013-02-22 19:36:00,
2013-02-22 14:51:00,38.1,23.8,30.10,North,-999,-999.0,-999.0,56,-99.99,,,-99.99,Acu-Link.com,2013-02-22 19:51:00,
2013-02-22 15:06:00,38.3,24.0,30.09,North,-999,-999.0,-999.0,56,-99.99,,,-99.99,Acu-Link.com,2013-02-22 20:06:00,
2013-02-22 15:21:00,38.3,24.0,30.09,North,-999,-999.0,-999.0,56,-99.99,,,-99.99,Acu-Link.com,2013-02-22 20:21:00,
2013-02-22 15:36:00,38.5,24.6,30.09,North,-999,-999.0,-999.0,57,-99.99,,,-99.99,Acu-Link.com,2013-02-22 20:36:00,
2013-02-22 15:52:00,37.9,24.1,30.10,North,-999,-999.0,-999.0,57,-99.99,,,-99.99,Acu-Link.com,2013-02-22 20:52:00,
2013-02-22 16:07:00,37.8,23.9,30.10,North,-999,-999.0,-999.0,57,-99.99,,,-99.99,Acu-Link.com,2013-02-22 21:07:00,
2013-02-22 16:22:00,37.4,23.6,30.10,North,-999,-999.0,-999.0,57,-99.99,,,-99.99,Acu-Link.com,2013-02-22 21:22:00,
2013-02-22 16:37:00,37.4,23.6,30.11,North,-999,-999.0,-999.0,57,-99.99,,,-99.99,Acu-Link.com,2013-02-22 21:37:00,
2013-02-22 16:52:00,37.0,24.1,30.10,North,-999,-999.0,-999.0,59,-99.99,,,-99.99,Acu-Link.com,2013-02-22 21:52:00,
2013-02-22 17:07:00,36.7,24.1,30.10,North,-999,-999.0,-999.0,60,-99.99,,,-99.99,Acu-Link.com,2013-02-22 22:07:00,
2013-02-22 17:22:00,36.7,24.1,30.11,North,-999,-999.0,-999.0,60,-99.99,,,-99.99,Acu-Link.com,2013-02-22 22:22:00,
2013-02-22 17:37:00,36.5,24.0,30.11,North,-999,-999.0,-999.0,60,-99.99,,,-99.99,Acu-Link.com,2013-02-22 22:37:00,
2013-02-22 17:52:00,36.5,24.3,30.11,North,-999,-999.0,-999.0,61,-99.99,,,-99.99,Acu-Link.com,2013-02-22 22:52:00,
2013-02-22 18:07:00,36.5,24.3,30.11,North,-999,-999.0,-999.0,61,-99.99,,,-99.99,Acu-Link.com,2013-02-22 23:07:00,
2013-02-22 18:22:00,36.3,24.6,30.11,North,-999,-999.0,-999.0,62,-99.99,,,-99.99,Acu-Link.com,2013-02-22 23:22:00,
2013-02-22 18:37:00,36.3,24.9,30.10,North,-999,-999.0,-999.0,63,-99.99,,,-99.99,Acu-Link.com,2013-02-22 23:37:00,
2013-02-22 18:52:00,36.3,25.3,30.10,North,-999,-999.0,-999.0,64,-99.99,,,-99.99,Acu-Link.com,2013-02-22 23:52:00,
2013-02-22 19:07:00,36.5,25.9,30.10,North,-999,-999.0,-999.0,65,-99.99,,,-99.99,Acu-Link.com,2013-02-23 00:07:00,
2013-02-22 19:22:00,36.5,25.9,30.10,North,-999,-999.0,-999.0,65,-99.99,,,-99.99,Acu-Link.com,2013-02-23 00:22:00,
2013-02-22 19:37:00,36.7,26.4,30.10,North,-999,-999.0,-999.0,66,-99.99,,,-99.99,Acu-Link.com,2013-02-23 00:37:00,
2013-02-22 19:52:00,36.7,26.4,30.10,North,-999,-999.0,-999.0,66,-99.99,,,-99.99,Acu-Link.com,2013-02-23 00:52:00,
2013-02-22 20:07:00,36.7,26.4,30.11,North,-999,-999.0,-999.0,66,-99.99,,,-99.99,Acu-Link.com,2013-02-23 01:07:00,
2013-02-22 20:22:00,36.7,26.8,30.11,North,-999,-999.0,-999.0,67,-99.99,,,-99.99,Acu-Link.com,2013-02-23 01:22:00,
2013-02-22 20:37:00,36.7,27.1,30.10,North,-999,-999.0,-999.0,68,-99.99,,,-99.99,Acu-Link.com,2013-02-23 01:37:00,
2013-02-22 20:52:00,36.7,27.1,30.10,North,-999,-999.0,-999.0,68,-99.99,,,-99.99,Acu-Link.com,2013-02-23 01:52:00,
2013-02-22 21:07:00,36.9,27.3,30.10,North,-999,-999.0,-999.0,68,-99.99,,,-99.99,Acu-Link.com,2013-02-23 02:07:00,
2013-02-22 21:22:00,36.9,27.7,30.09,North,-999,-999.0,-999.0,69,-99.99,,,-99.99,Acu-Link.com,2013-02-23 02:22:00,
2013-02-22 21:37:00,36.9,27.7,30.09,North,-999,-999.0,-999.0,69,-99.99,,,-99.99,Acu-Link.com,2013-02-23 02:37:00,
2013-02-22 21:52:00,36.9,27.7,30.09,North,-999,-999.0,-999.0,69,-99.99,,,-99.99,Acu-Link.com,2013-02-23 02:52:00,
2013-02-22 22:07:00,37.0,27.8,30.09,North,-999,-999.0,-999.0,69,-99.99,,,-99.99,Acu-Link.com,2013-02-23 03:07:00,
2013-02-22 22:22:00,37.0,28.2,30.08,North,-999,-999.0,-999.0,70,-99.99,,,-99.99,Acu-Link.com,2013-02-23 03:22:00,
2013-02-22 22:37:00,37.2,28.4,30.08,North,-999,-999.0,-999.0,70,-99.99,,,-99.99,Acu-Link.com,2013-02-23 03:37:00,
2013-02-22 22:52:00,37.2,28.4,30.08,North,-999,-999.0,-999.0,70,-99.99,,,-99.99,Acu-Link.com,2013-02-23 03:52:00,
2013-02-22 23:07:00,37.4,28.5,30.07,North,-999,-999.0,-999.0,70,-99.99,,,-99.99,Acu-Link.com,2013-02-23 04:07:00,
2013-02-22 23:22:00,37.4,28.5,30.07,North,-999,-999.0,-999.0,70,-99.99,,,-99.99,Acu-Link.com,2013-02-23 04:22:00,
2013-02-22 23:37:00,37.2,29.0,30.06,North,-999,-999.0,-999.0,72,-99.99,,,-99.99,Acu-Link.com,2013-02-23 04:37:00,
2013-02-22 23:52:00,37.2,29.4,30.06,North,-999,-999.0,-999.0,73,-99.99,,,-99.99,Acu-Link.com,2013-02-23 04:52:00,